Location: Unspecified
(41.1637°N, 24.2901°E)
Time: 20:31:57
(UTC+02:00)

ISS - Pass Details

Date: 27 May 2023
Orbit: 411 x 419 km, 51.6° (Epoch: 06 June)

Event Time Altitude Azimuth Distance (km) Brightness Sun altitude
Rises 20:24:48 0° 310° (NW) 2,354 2.7 -7.1°
Reaches altitude 10° 20:27:09 10° 325° (NW) 1,492 0.5 -7.4°
Maximum altitude 20:29:58 25° 22° (NNE) 894 -1.9 -7.9°
Drops below altitude 10° 20:32:47 10° 80° (E) 1,492 -1.3 -8.3°
Enters shadow 20:33:44 - 87° (E) 1,827 -1.0 -8.4°
